Wind_Speed
40 39 37 37 37 35 35 36 37 33 30 30 32 33 32 30 29 24 18 15 13 11 10 14 19 23 27 34 38 39 36 35 36 35 32 30 29 28 27 25 25 24 24 24 24 25 24 24 24 22 21 21 21 21 22 22 22 22 22 22 22 22 23
42 40 39 42 39 36 37 37 34 31 33 36 36 36 35 32 28 23 18 16 15 14 15 17 20 23 28 32 36 37 37 38 38 36 33 31 29 28 26 25 25 25 24 24 24 25 25 25 25 24 23 22 22 22 22 22 22 21 22 22 22 23 23
42 42 44 47 44 42 42 38 34 36 38 39 38 36 33 30 25 20 17 16 15 14 16 19 21 24 26 30 33 35 37 39 39 36 34 32 31 28 26 24 24 24 24 23 22 23 24 24 25 25 25 25 24 23 23 22 22 22 23 24 24 23 23
45 47 50 51 48 47 46 43 42 42 40 39 38 35 31 29 24 20 18 16 14 16 19 22 24 26 28 30 32 34 36 38 38 36 35 34 32 29 26 25 23 22 21 20 20 20 21 22 23 24 26 26 25 25 23 23 22 22 23 23 22 22 22
48 50 52 51 50 50 49 47 47 45 41 40 39 36 34 30 25 21 20 16 14 17 21 23 25 29 31 32 33 33 34 36 37 37 36 34 32 29 28 27 23 21 20 19 20 21 22 23 24 25 26 26 26 26 25 24 24 23 23 22 22 23 23
50 50 51 51 51 52 49 47 46 43 40 40 39 37 34 29 24 21 19 16 14 16 21 24 25 29 32 34 35 34 33 35 36 36 36 34 32 30 30 28 25 24 22 20 21 21 23 24 25 26 26 26 27 26 26 26 26 25 23 22 22 23 23
49 50 53 52 52 50 48 48 47 44 42 41 41 38 33 30 25 22 21 17 13 15 21 23 23 26 31 35 35 35 34 35 36 36 36 35 33 32 32 30 28 27 26 24 21 20 22 24 25 27 27 27 27 27 27 28 26 25 24 23 22 23 24
52 54 56 54 52 52 52 53 51 49 47 46 44 39 35 33 30 28 26 20 15 17 20 19 18 23 29 33 35 36 36 37 37 37 37 36 34 34 34 32 30 30 29 27 25 24 23 25 27 28 28 28 28 28 29 28 27 26 26 24 23 23 23
57 58 58 55 55 56 56 55 53 52 51 50 48 43 40 39 36 33 29 24 22 23 20 17 18 22 27 31 34 35 36 38 39 39 38 37 35 36 36 35 34 34 32 31 31 30 28 27 28 29 28 27 27 27 27 27 27 27 27 25 23 23 24
60 59 60 58 58 58 57 56 55 54 54 52 50 46 45 43 38 34 31 28 28 27 22 20 22 23 26 29 32 34 35 37 39 40 40 38 37 37 37 37 37 36 36 35 34 34 32 30 29 29 28 26 25 25 26 26 27 28 28 25 23 24 25
62 61 62 60 58 59 58 57 55 55 55 54 51 48 47 44 38 35 33 30 28 26 24 24 25 24 26 27 29 32 34 36 38 40 41 40 39 39 39 38 38 38 38 37 36 36 34 31 30 31 29 25 24 25 25 26 28 29 28 25 23 24 25
63 63 63 61 60 60 59 57 56 55 54 52 50 50 49 44 40 38 35 31 29 26 25 26 26 25 26 26 27 30 32 34 36 37 39 40 41 41 41 41 41 41 40 38 37 37 36 33 31 31 30 27 25 25 25 26 29 30 28 25 23 23 24
64 64 63 62 62 61 60 59 57 55 53 50 49 50 49 44 43 41 35 31 31 27 25 25 25 25 25 26 26 27 29 31 33 35 37 39 41 42 43 44 44 43 40 38 37 38 38 36 32 30 31 29 26 25 25 26 28 29 28 26 24 23 23
66 66 65 64 63 62 61 60 58 56 54 51 50 51 48 45 45 41 35 33 33 30 27 26 26 26 27 27 27 26 27 29 31 32 34 36 39 42 44 45 45 43 40 39 39 39 39 38 34 32 32 31 28 26 26 26 26 28 29 27 25 23 22
67 67 66 65 64 63 62 62 60 58 56 54 53 52 48 46 46 40 35 36 35 31 28 27 28 29 29 28 28 28 28 29 30 31 31 32 35 38 41 43 43 42 41 40 40 40 40 39 38 37 35 33 31 28 27 26 26 27 29 28 26 24 22
69 69 67 67 66 65 64 64 62 60 58 56 55 53 50 48 47 41 37 38 36 32 30 29 28 29 30 30 29 29 29 29 30 30 30 30 30 31 34 36 38 39 40 40 40 40 40 40 40 39 37 36 33 29 27 27 26 27 29 29 27 25 23
71 71 69 68 67 66 65 65 63 60 59 57 56 55 52 50 49 44 40 40 38 34 32 32 31 30 30 30 30 30 30 31 31 31 30 30 30 29 28 29 30 32 36 39 39 39 39 39 39 39 38 36 31 25 24 26 28 28 28 27 26 25 23
72 73 71 68 68 68 67 67 65 62 60 58 57 56 54 52 51 46 43 43 40 35 34 34 33 31 30 31 32 33 33 33 33 32 31 30 29 29 28 27 26 27 29 33 35 36 36 36 37 37 36 32 26 22 22 25 27 28 26 25 24 24 23
73 73 72 69 69 69 70 70 67 64 61 59 59 58 55 53 52 49 46 45 41 36 35 35 33 32 33 33 34 34 35 35 34 33 32 30 30 29 28 27 26 25 26 27 29 31 32 33 33 33 32 30 26 22 21 23 25 27 26 25 24 24 24
75 74 73 71 71 72 72 71 68 65 63 61 60 58 56 55 55 52 49 46 41 36 36 36 35 35 35 35 35 34 33 35 36 35 33 32 31 31 29 28 27 27 26 26 26 27 28 29 30 30 30 29 27 24 22 22 24 25 25 24 24 24 23
76 76 74 73 73 73 72 71 69 67 65 63 61 60 59 59 58 54 50 47 43 39 38 38 36 35 36 36 36 35 33 34 37 37 35 34 34 33 31 30 29 28 28 27 26 26 27 27 28 29 29 29 28 26 24 23 23 24 24 23 23 22 21
78 77 76 75 74 73 73 73 71 69 67 65 62 60 61 61 58 55 52 49 45 42 40 39 37 36 37 36 35 35 36 36 37 38 37 36 36 35 33 31 30 29 29 28 28 27 27 28 29 29 29 29 29 28 27 25 24 25 24 23 23 21 21
79 78 77 76 75 74 74 75 73 70 68 66 64 61 62 62 58 56 54 51 47 44 42 41 39 38 38 36 35 36 37 37 39 39 38 38 37 36 35 33 31 30 30 30 30 28 28 29 30 30 30 29 29 29 29 28 27 26 24 24 24 24 24
79 79 78 77 76 76 77 77 75 72 69 67 65 63 63 62 59 57 55 51 48 46 43 42 42 41 39 37 37 37 36 37 39 40 39 38 38 37 37 35 33 33 32 31 31 30 29 30 31 32 31 30 30 30 30 30 29 28 27 27 27 27 28
80 79 79 78 78 78 78 78 76 74 71 69 67 65 65 63 60 59 56 53 50 47 45 43 43 43 41 39 38 37 36 37 39 40 39 38 38 37 37 36 35 34 33 32 32 32 31 31 32 33 33 31 31 32 32 32 31 31 31 31 30 30 31
81 81 80 79 79 79 80 79 77 74 72 70 68 67 66 65 62 60 58 54 51 49 46 45 44 44 43 41 39 38 37 37 38 39 39 39 38 37 37 36 36 35 33 33 33 33 32 32 33 34 33 32 33 34 34 34 34 33 33 33 33 33 32
81 82 81 80 80 81 81 79 77 74 72 72 71 68 66 65 63 62 60 57 53 51 48 47 45 45 44 42 41 40 39 38 38 39 40 40 39 38 38 37 36 35 35 34 34 33 33 32 33 34 34 33 34 35 36 36 35 35 34 33 33 33 32
84 83 83 82 82 82 81 79 77 75 73 72 72 70 68 67 64 62 61 59 56 53 50 48 47 46 45 44 42 41 41 40 39 39 40 41 41 40 39 38 37 36 36 35 35 34 33 32 33 33 34 34 35 36 36 37 36 36 35 34 35 34 34
87 86 85 84 83 81 81 80 78 76 74 72 72 71 69 68 66 63 61 60 57 54 52 50 48 47 45 44 44 44 43 42 41 39 39 40 42 42 41 40 39 38 37 36 36 36 35 33 33 33 34 34 35 36 37 38 38 38 37 37 37 37 37
89 88 86 85 83 81 82 81 79 76 74 73 73 72 70 69 67 64 62 61 58 56 53 51 49 48 46 45 45 45 45 43 42 41 40 39 40 42 42 42 40 39 37 36 35 36 36 35 34 34 35 35 36 36 37 39 40 40 40 40 39 39 39
88 89 87 86 84 83 83 81 79 77 75 74 73 72 71 69 67 65 63 61 59 57 55 52 50 48 47 46 45 46 46 45 44 43 41 40 40 40 41 41 40 39 37 36 36 36 37 37 36 36 36 37 37 37 38 39 40 41 41 42 42 41 41
86 89 89 87 86 85 83 82 80 79 77 75 74 73 72 70 68 65 64 62 60 58 56 54 51 49 47 46 46 46 46 46 45 44 43 41 40 40 40 40 39 38 37 36 36 37 37 38 38 38 38 38 38 38 39 40 40 40 40 41 41 42 42
81 85 86 85 85 85 83 83 83 81 79 77 75 74 73 71 69 67 65 63 61 59 57 55 52 50 48 47 47 46 46 46 46 45 45 43 41 40 40 40 40 38 37 37 37 37 37 38 38 39 39 39 39 40 40 41 40 40 40 41 41 42 43
72 76 79 81 84 84 83 84 84 83 81 79 77 75 74 72 70 68 65 63 63 60 57 56 53 51 49 48 48 47 46 47 47 46 45 45 43 41 41 41 41 40 39 38 37 36 35 36 36 37 39 39 40 40 41 41 41 41 42 42 44 45 45
59 64 69 75 80 82 81 83 84 83 82 80 79 77 75 73 71 68 62 61 62 61 59 57 55 52 49 47 47 48 47 47 47 47 46 46 45 44 42 41 41 41 41 40 39 37 36 35 35 36 37 38 39 40 41 41 41 41 42 43 45 47 48
48 54 61 68 75 76 76 78 81 82 82 81 79 78 76 73 72 70 66 62 61 62 61 58 54 52 51 49 47 46 47 48 48 48 48 47 46 45 44 42 42 42 42 42 41 40 39 38 37 36 37 37 38 39 40 41 42 42 43 43 44 45 46
42 49 56 64 70 71 71 75 79 80 79 79 78 78 77 74 72 72 69 62 57 57 60 58 52 48 48 49 47 43 44 47 49 49 49 49 48 47 46 45 44 43 43 43 43 42 42 41 39 39 38 38 39 40 41 43 44 44 44 44 44 43 42
Wind_Direction
224 225 226 227 227 227 227 227 227 227 226 227 228 233 236 239 241 243 240 226 217 215 188 173 183 187 194 203 204 204 207 210 212 213 212 209 206 205 205 207 210 209 203 197 193 190 190 190 191 193 195 198 200 202 204 207 209 210 211 211 209 209 209
220 221 224 226 223 223 226 226 226 226 225 224 225 228 231 234 236 236 231 221 214 210 192 181 182 185 193 201 202 204 207 211 214 215 213 213 212 210 207 206 209 212 211 207 199 195 195 194 193 193 195 199 201 203 205 206 208 210 214 216 216 216 216
218 219 222 225 220 219 221 221 220 222 222 223 225 227 229 231 232 230 229 222 212 204 190 182 181 182 189 197 200 203 207 212 216 217 215 215 216 214 210 208 209 213 217 214 208 203 200 199 197 197 198 199 200 204 207 208 209 211 214 217 219 221 222
217 218 221 224 221 219 220 217 217 218 217 220 224 226 228 231 231 231 231 225 211 199 189 184 183 181 185 194 200 204 207 212 216 218 216 216 218 218 213 212 211 212 215 215 213 211 210 208 205 204 204 202 202 206 210 213 214 216 218 221 224 227 229
217 219 221 224 223 222 221 219 219 218 215 217 220 221 222 224 223 223 226 222 208 196 187 185 185 184 187 194 199 203 206 210 214 216 216 217 219 217 215 215 214 211 211 212 213 214 214 215 215 214 211 209 210 211 211 215 218 220 223 226 228 229 231
218 221 223 224 225 225 224 223 225 225 220 220 222 221 221 222 219 218 218 207 194 190 187 187 189 189 191 193 196 199 203 207 211 213 215 217 217 216 216 217 214 209 207 210 215 218 220 220 220 221 219 217 220 220 220 221 221 222 225 227 230 232 232
217 221 224 224 226 227 226 226 226 225 223 224 226 224 223 223 222 223 221 208 196 195 190 186 187 191 194 195 196 197 199 203 207 209 211 213 213 213 216 217 213 209 209 210 212 218 226 229 226 224 223 222 224 227 228 229 227 226 227 226 228 231 231
216 219 223 223 223 225 225 225 224 222 221 221 224 223 221 222 221 221 222 217 203 185 177 180 191 196 197 197 197 197 198 201 204 206 209 210 210 211 212 214 211 211 212 213 212 214 223 231 231 227 225 226 227 228 230 231 231 231 230 227 227 229 230
216 217 221 221 222 224 224 224 224 223 222 221 221 219 218 219 218 216 215 214 204 188 180 190 200 199 198 198 200 201 201 204 205 207 209 210 210 210 210 211 210 210 213 215 217 219 223 229 234 233 229 230 232 232 232 232 233 234 234 231 229 229 230
217 218 221 220 221 224 224 224 223 223 223 222 222 220 220 220 218 214 211 211 205 192 187 196 200 202 203 199 199 202 203 206 208 209 210 210 209 209 210 211 210 211 214 217 219 222 225 229 236 239 237 236 238 239 237 234 233 235 237 235 232 231 232
217 218 220 221 222 224 225 225 224 224 224 223 222 222 223 223 221 217 214 212 205 191 187 196 199 204 207 200 198 202 203 207 209 209 209 209 209 209 210 211 211 212 216 219 220 221 223 226 232 240 242 242 243 245 243 239 235 235 238 238 235 233 234
218 218 219 220 221 224 225 226 225 225 225 224 223 224 225 224 222 221 217 214 211 200 190 195 200 204 210 207 202 202 204 208 210 210 209 207 208 210 212 213 213 215 218 220 219 218 220 222 228 238 245 246 247 248 248 244 240 239 240 239 236 234 236
218 219 220 220 221 223 225 226 226 227 227 226 225 226 226 225 223 222 218 214 217 211 197 194 201 207 212 214 211 206 205 207 210 214 214 211 209 211 214 216 217 219 221 221 219 216 218 222 226 235 243 246 247 248 249 248 246 244 243 240 235 232 233
217 219 220 221 222 223 225 226 227 227 228 226 227 227 226 225 225 223 218 217 218 216 206 200 204 210 214 217 218 215 212 210 210 214 217 216 214 213 215 218 221 223 223 222 219 216 217 221 225 231 239 243 244 245 247 249 247 245 244 241 236 231 230
217 218 219 221 222 223 224 226 226 226 227 227 228 229 228 228 228 224 220 222 221 219 217 211 209 214 218 220 221 220 219 218 216 215 217 218 217 215 217 220 224 226 226 224 221 218 219 222 226 231 237 242 243 242 245 249 248 245 242 239 236 232 228
217 218 219 220 221 222 224 225 226 226 227 228 229 231 230 230 231 227 224 226 226 223 223 220 216 215 217 220 223 224 224 223 223 222 221 222 221 219 219 222 224 226 227 227 225 222 222 224 227 231 237 242 245 244 245 248 249 246 241 237 234 232 228
216 218 218 219 221 222 223 224 225 226 227 229 230 232 232 232 233 230 226 228 228 224 222 222 220 217 214 216 222 226 227 226 227 226 225 226 227 226 223 223 225 225 226 227 227 226 227 227 228 231 236 243 247 246 241 240 242 242 238 233 231 230 227
215 217 217 217 220 222 223 223 224 225 227 228 230 232 232 232 233 231 229 230 228 223 221 221 220 221 218 216 219 224 227 228 228 228 229 229 230 229 227 226 226 225 225 227 228 229 230 230 231 233 236 242 245 240 232 233 235 236 233 229 227 226 225
215 217 217 217 220 222 223 223 223 224 226 227 229 231 231 232 234 232 230 230 227 222 222 222 220 221 221 219 220 223 227 230 231 230 230 231 231 231 230 229 230 230 230 230 231 232 232 231 231 232 234 237 239 234 230 232 234 234 232 230 228 227 226
216 218 218 218 220 222 223 224 224 224 226 227 228 230 231 232 234 232 230 230 227 222 223 224 221 221 222 222 221 222 224 229 233 233 232 232 233 233 232 233 235 235 236 237 237 237 236 233 230 230 230 233 235 233 230 231 232 234 234 232 233 234 234
216 218 218 219 220 222 224 226 225 224 225 226 227 229 231 231 233 233 231 230 227 223 223 226 224 222 223 223 223 223 223 226 231 234 234 234 235 236 236 236 237 238 239 241 241 240 240 236 232 229 228 230 232 233 232 230 230 233 235 237 239 242 244
217 218 219 219 220 222 225 227 226 225 225 226 226 228 231 232 233 234 234 232 228 224 222 224 224 224 224 223 223 225 225 226 230 232 233 234 236 238 238 237 237 237 238 241 242 242 241 239 236 233 230 229 229 229 232 235 235 237 240 244 246 249 252
218 218 219 220 221 223 225 227 227 226 226 227 226 227 231 233 233 234 235 233 230 226 223 223 224 225 225 223 222 224 225 227 231 232 232 233 235 236 238 238 237 236 236 238 241 242 242 241 241 237 233 230 227 226 229 235 239 242 246 249 250 253 256
219 219 219 220 221 223 225 226 227 227 227 227 228 228 231 233 233 234 234 234 232 229 226 224 225 226 227 225 222 222 224 227 231 233 233 234 234 236 238 240 239 237 235 236 239 241 241 242 243 242 237 232 227 226 228 233 237 241 244 247 248 250 253
221 220 220 220 222 223 225 225 226 227 227 228 229 230 231 232 232 233 233 233 232 231 229 227 226 228 231 229 225 223 224 226 229 233 235 235 235 236 239 241 242 241 237 235 236 238 240 240 242 243 242 236 230 227 229 232 234 236 239 241 243 245 248
221 221 221 222 223 224 225 226 226 226 227 229 230 230 231 232 232 232 232 232 232 232 231 229 228 229 232 233 230 226 225 226 228 232 235 236 236 238 239 241 243 243 242 238 235 236 238 239 240 242 243 240 234 231 230 230 232 235 237 238 241 243 246
222 222 223 223 223 224 225 226 226 226 228 230 230 230 231 232 232 231 232 231 231 231 232 231 230 230 232 234 233 229 227 227 227 230 233 235 237 238 239 241 243 244 245 243 239 237 236 237 239 240 241 241 239 236 234 233 235 238 238 239 240 242 246
223 223 224 224 224 225 226 227 227 227 228 229 230 231 232 232 232 231 232 231 230 230 231 232 232 232 232 234 235 233 230 228 228 229 232 234 236 238 239 241 243 244 245 245 244 241 239 237 238 239 239 240 240 239 238 238 239 240 241 243 245 246 249
224 224 224 224 224 226 227 228 228 228 228 229 231 232 232 233 233 232 232 232 231 230 231 232 233 234 234 234 235 235 233 231 230 230 231 233 235 237 238 239 241 243 244 244 244 243 242 240 239 239 240 240 239 239 240 241 242 243 243 245 247 249 252
225 225 225 226 226 226 228 229 229 229 228 229 231 232 232 234 234 233 232 233 232 231 231 231 231 233 234 235 235 236 236 235 233 232 232 233 235 236 237 238 240 242 243 243 243 243 242 241 241 241 242 243 242 241 241 242 244 246 246 247 248 249 251
226 226 226 226 227 228 229 230 231 230 230 229 231 232 233 233 234 235 234 234 233 232 231 231 231 231 232 234 236 237 238 238 237 236 235 235 236 238 239 239 240 240 241 242 243 243 243 242 241 242 243 245 246 246 245 245 245 246 248 250 251 252 253
228 227 226 227 228 229 230 231 232 232 231 230 231 232 234 234 234 235 235 234 234 234 233 232 231 230 230 232 235 237 239 240 240 239 238 237 237 239 241 241 241 241 241 242 243 243 244 243 242 242 243 245 247 248 249 249 250 250 250 251 253 254 255
229 229 228 229 229 230 231 232 233 233 233 232 232 232 234 235 235 235 236 235 235 235 235 233 232 231 230 231 233 235 238 240 241 241 242 241 240 240 241 243 243 243 242 243 244 244 245 245 243 242 242 243 245 247 249 251 254 255 256 256 256 256 257
231 230 230 231 231 232 232 233 233 233 234 234 234 233 234 235 236 237 237 237 237 237 237 236 235 232 231 231 233 235 237 239 241 242 243 243 243 241 241 243 244 245 245 244 244 245 245 246 246 244 242 242 243 245 247 250 252 254 256 257 257 257 257
232 232 232 233 233 232 233 234 234 234 234 235 235 235 235 235 236 237 239 239 238 238 239 240 239 237 234 233 234 235 237 239 240 242 243 244 244 244 243 244 245 246 247 246 245 244 244 245 246 246 245 244 243 243 245 247 249 250 251 253 254 256 257
232 231 231 232 233 233 234 235 235 235 236 236 237 237 236 236 237 238 239 240 241 241 240 241 243 244 242 239 238 237 237 238 240 242 243 244 245 246 246 246 246 246 247 248 247 246 246 247 247 248 248 247 246 245 244 245 246 248 249 250 252 253 255
231 231 231 232 232 232 233 234 234 235 236 237 238 239 239 238 238 239 239 240 243 245 243 240 241 244 245 244 243 242 240 238 239 241 243 244 245 247 247 247 247 248 248 249 248 248 249 249 249 249 249 248 247 246 245 245 245 247 248 251 252 252 253
Height
5811 5813 5816 5816 5818 5821 5823 5823 5824 5829 5834 5835 5836 5837 5838 5840 5841 5844 5846 5848 5850 5852 5854 5856 5857 5860 5861 5864 5867 5870 5872 5874 5875 5876 5878 5880 5882 5883 5885 5887 5889 5890 5891 5891 5892 5893 5894 5895 5897 5899 5901 5903 5904 5905 5906 5907 5908 5909 5910 5911 5912 5913 5914
5806 5809 5810 5810 5814 5817 5817 5819 5823 5828 5829 5829 5830 5832 5834 5836 5838 5842 5845 5846 5848 5851 5853 5854 5856 5858 5860 5862 5865 5868 5870 5871 5872 5874 5877 5879 5880 5882 5884 5886 5887 5888 5890 5891 5891 5892 5893 5895 5896 5897 5899 5900 5902 5903 5904 5905 5907 5908 5909 5910 5911 5911 5912
5801 5803 5803 5802 5807 5810 5811 5816 5819 5820 5821 5824 5826 5828 5831 5834 5836 5840 5842 5844 5847 5849 5851 5853 5855 5856 5858 5861 5863 5865 5867 5868 5870 5873 5875 5877 5879 5881 5882 5884 5886 5887 5889 5890 5891 5893 5894 5894 5895 5896 5897 5898 5900 5901 5902 5904 5905 5906 5907 5907 5909 5910 5911
5795 5795 5795 5796 5801 5804 5806 5810 5811 5813 5817 5820 5822 5826 5830 5833 5835 5838 5840 5842 5844 5846 5848 5850 5852 5854 5857 5858 5860 5862 5864 5866 5868 5871 5873 5875 5877 5879 5881 5883 5884 5886 5888 5889 5891 5892 5893 5894 5895 5895 5896 5897 5898 5899 5900 5902 5903 5904 5905 5906 5908 5909 5910
5787 5788 5790 5793 5797 5799 5802 5805 5805 5808 5813 5816 5818 5822 5826 5829 5832 5835 5837 5839 5842 5843 5845 5847 5849 5851 5853 5855 5857 5859 5861 5863 5866 5868 5871 5873 5875 5878 5880 5881 5883 5884 5886 5887 5888 5889 5890 5891 5892 5893 5894 5896 5897 5898 5899 5900 5901 5902 5903 5905 5906 5907 5908
5783 5785 5787 5790 5792 5794 5799 5803 5804 5808 5813 5814 5816 5818 5822 5826 5830 5832 5834 5837 5840 5841 5843 5844 5846 5848 5850 5852 5854 5856 5858 5860 5863 5866 5868 5871 5874 5876 5878 5879 5881 5882 5883 5884 5885 5886 5887 5888 5890 5891 5893 5894 5895 5897 5898 5898 5899 5900 5902 5903 5904 5905 5906
5780 5781 5781 5784 5788 5792 5797 5799 5801 5805 5809 5811 5812 5816 5821 5825 5828 5831 5833 5835 5838 5840 5841 5842 5844 5846 5847 5849 5851 5853 5855 5857 5860 5862 5865 5867 5870 5873 5875 5876 5878 5880 5881 5882 5883 5884 5885 5885 5887 5889 5890 5892 5894 5895 5896 5897 5898 5899 5900 5901 5902 5903 5904
5773 5773 5774 5779 5783 5786 5789 5791 5794 5799 5802 5805 5808 5813 5818 5821 5824 5827 5829 5833 5837 5838 5839 5841 5842 5843 5845 5847 5849 5851 5853 5854 5857 5859 5861 5864 5866 5869 5871 5873 5875 5877 5878 5879 5880 5881 5882 5882 5884 5886 5888 5890 5891 5893 5894 5895 5896 5897 5897 5898 5899 5900 5902
5763 5764 5767 5773 5776 5778 5781 5785 5789 5793 5797 5800 5803 5808 5813 5814 5818 5823 5826 5830 5833 5834 5836 5838 5840 5841 5843 5845 5847 5849 5851 5852 5854 5856 5858 5861 5863 5866 5868 5869 5871 5873 5875 5876 5878 5878 5879 5880 5881 5883 5885 5887 5889 5890 5892 5893 5895 5895 5895 5896 5897 5898 5899
5757 5759 5762 5766 5769 5772 5776 5779 5784 5788 5791 5795 5799 5804 5807 5809 5814 5819 5823 5826 5829 5831 5834 5836 5837 5839 5840 5843 5845 5847 5849 5850 5852 5853 5855 5858 5860 5863 5865 5866 5868 5870 5872 5873 5875 5876 5877 5878 5879 5880 5882 5885 5886 5888 5890 5891 5892 5893 5893 5895 5896 5896 5897
5750 5754 5756 5761 5765 5768 5771 5775 5779 5783 5786 5791 5796 5800 5802 5806 5812 5817 5819 5823 5826 5829 5831 5833 5834 5836 5837 5840 5842 5844 5846 5847 5849 5850 5852 5855 5857 5859 5861 5863 5865 5866 5868 5870 5872 5873 5875 5876 5877 5878 5879 5882 5884 5885 5887 5888 5889 5890 5891 5893 5894 5895 5895
5744 5747 5751 5756 5761 5763 5766 5771 5775 5778 5782 5788 5792 5795 5798 5804 5809 5812 5817 5821 5823 5826 5829 5830 5832 5834 5835 5837 5840 5841 5843 5844 5846 5848 5850 5852 5854 5856 5857 5859 5860 5862 5864 5866 5868 5870 5872 5873 5874 5875 5877 5879 5880 5882 5884 5885 5885 5887 5888 5890 5892 5893 5893
5739 5743 5747 5751 5755 5758 5762 5766 5770 5774 5779 5784 5788 5790 5795 5801 5804 5808 5814 5819 5821 5824 5827 5829 5831 5832 5833 5835 5837 5839 5841 5843 5844 5846 5847 5849 5851 5853 5854 5855 5857 5859 5861 5863 5866 5867 5869 5871 5872 5873 5875 5876 5878 5879 5880 5881 5882 5884 5885 5887 5889 5891 5891
5732 5737 5741 5746 5750 5754 5758 5761 5765 5770 5774 5779 5782 5784 5790 5796 5798 5805 5812 5815 5817 5821 5825 5828 5829 5829 5830 5832 5834 5836 5838 5840 5841 5842 5844 5846 5847 5849 5851 5853 5854 5856 5859 5861 5863 5864 5866 5868 5870 5871 5872 5873 5875 5876 5877 5878 5879 5880 5882 5884 5886 5888 5889
5726 5730 5735 5740 5744 5749 5752 5755 5760 5765 5768 5773 5776 5779 5786 5791 5794 5802 5809 5810 5814 5819 5822 5825 5826 5827 5828 5830 5831 5833 5835 5836 5838 5839 5841 5843 5844 5846 5848 5850 5852 5854 5856 5858 5860 5861 5863 5865 5866 5868 5869 5871 5872 5873 5874 5875 5876 5877 5878 5881 5882 5884 5886
5720 5724 5729 5734 5738 5743 5746 5748 5754 5759 5763 5767 5771 5775 5781 5785 5789 5798 5804 5806 5811 5816 5819 5821 5824 5825 5826 5827 5829 5831 5832 5834 5835 5836 5838 5841 5842 5844 5845 5847 5849 5851 5853 5855 5857 5859 5860 5862 5863 5865 5866 5867 5869 5871 5872 5872 5873 5874 5875 5877 5879 5880 5882
5713 5715 5721 5728 5732 5736 5739 5743 5749 5754 5758 5763 5767 5770 5776 5781 5785 5793 5799 5801 5806 5811 5815 5817 5819 5821 5824 5826 5827 5828 5829 5830 5832 5833 5836 5838 5840 5841 5842 5844 5846 5848 5850 5852 5854 5856 5857 5859 5860 5862 5863 5864 5866 5868 5869 5869 5870 5870 5872 5874 5876 5877 5879
5705 5708 5715 5722 5726 5729 5733 5737 5742 5748 5752 5758 5761 5765 5771 5775 5779 5787 5793 5795 5800 5806 5809 5811 5814 5818 5821 5823 5824 5824 5825 5826 5828 5831 5833 5834 5836 5838 5839 5841 5843 5845 5847 5849 5851 5853 5854 5856 5858 5859 5860 5862 5864 5865 5865 5866 5867 5868 5870 5872 5873 5874 5875
5699 5702 5709 5717 5720 5722 5725 5729 5735 5742 5748 5753 5756 5760 5766 5770 5774 5780 5785 5788 5795 5802 5804 5806 5811 5814 5816 5819 5821 5821 5822 5824 5826 5828 5830 5832 5834 5835 5837 5838 5840 5843 5845 5847 5849 5850 5852 5853 5855 5856 5858 5859 5860 5861 5862 5863 5865 5867 5868 5869 5870 5871 5873
5692 5696 5703 5710 5714 5716 5718 5723 5731 5738 5743 5747 5751 5755 5760 5764 5766 5772 5779 5784 5791 5797 5799 5801 5806 5809 5812 5814 5817 5819 5821 5822 5823 5825 5827 5829 5831 5832 5834 5836 5838 5840 5842 5844 5846 5848 5849 5850 5852 5853 5855 5856 5857 5858 5860 5861 5863 5864 5865 5867 5868 5869 5871
5685 5691 5697 5703 5707 5711 5714 5718 5725 5731 5735 5740 5745 5750 5753 5756 5760 5766 5773 5779 5786 5792 5794 5796 5801 5805 5807 5810 5813 5816 5818 5819 5820 5822 5824 5826 5828 5829 5831 5833 5835 5837 5839 5841 5843 5845 5846 5848 5849 5850 5852 5853 5854 5856 5857 5859 5861 5862 5863 5864 5866 5867 5869
5678 5684 5689 5695 5701 5706 5710 5712 5717 5724 5729 5734 5741 5746 5747 5749 5755 5761 5767 5773 5780 5786 5789 5791 5796 5799 5802 5805 5809 5812 5813 5815 5816 5818 5821 5823 5824 5826 5828 5830 5832 5834 5836 5838 5839 5841 5843 5845 5846 5847 5849 5850 5852 5853 5855 5857 5858 5859 5861 5862 5863 5865 5867
5670 5677 5684 5689 5695 5700 5702 5704 5709 5717 5724 5728 5735 5742 5742 5744 5751 5756 5760 5767 5774 5779 5784 5787 5790 5793 5796 5800 5804 5806 5808 5810 5812 5814 5817 5819 5821 5823 5825 5827 5829 5831 5832 5834 5836 5838 5840 5842 5843 5844 5846 5847 5849 5851 5853 5854 5855 5856 5859 5860 5861 5862 5863
5663 5671 5678 5683 5687 5691 5693 5697 5702 5710 5717 5722 5729 5735 5736 5739 5745 5750 5754 5761 5767 5772 5778 5782 5784 5786 5790 5794 5798 5801 5804 5806 5807 5810 5813 5815 5817 5820 5822 5824 5826 5828 5829 5831 5832 5834 5836 5838 5840 5841 5843 5844 5846 5848 5850 5851 5852 5854 5856 5857 5858 5859 5860
5657 5663 5670 5675 5679 5682 5686 5691 5696 5703 5711 5716 5722 5727 5729 5733 5739 5744 5748 5755 5761 5766 5772 5776 5779 5781 5784 5789 5793 5797 5799 5801 5803 5805 5808 5810 5813 5816 5818 5820 5822 5824 5826 5828 5829 5830 5832 5834 5836 5838 5839 5841 5843 5845 5846 5848 5850 5851 5852 5853 5855 5856 5857
5650 5656 5662 5667 5672 5674 5678 5683 5690 5698 5705 5709 5714 5719 5722 5727 5733 5738 5743 5749 5755 5760 5765 5769 5773 5777 5779 5783 5787 5791 5794 5797 5799 5801 5803 5805 5808 5810 5813 5815 5818 5820 5822 5824 5825 5827 5828 5830 5832 5834 5836 5838 5839 5841 5843 5845 5846 5847 5849 5850 5852 5853 5854
5643 5648 5653 5658 5663 5665 5670 5678 5685 5693 5698 5701 5706 5712 5717 5720 5726 5732 5737 5743 5749 5754 5759 5763 5767 5771 5774 5777 5781 5785 5789 5791 5794 5796 5798 5800 5803 5805 5808 5810 5813 5816 5818 5820 5822 5823 5825 5826 5828 5830 5832 5834 5836 5837 5839 5841 5842 5844 5845 5847 5848 5849 5851
5633 5639 5644 5650 5655 5660 5667 5674 5680 5685 5691 5695 5701 5706 5710 5714 5720 5726 5731 5736 5742 5748 5752 5757 5761 5765 5769 5772 5775 5779 5783 5786 5788 5791 5793 5795 5798 5800 5802 5805 5807 5810 5813 5816 5818 5819 5821 5822 5824 5826 5828 5830 5832 5834 5835 5837 5838 5839 5841 5843 5844 5845 5847
5625 5632 5638 5644 5651 5658 5662 5666 5671 5678 5685 5691 5695 5699 5703 5708 5714 5720 5725 5730 5736 5742 5747 5751 5755 5759 5763 5767 5770 5773 5776 5780 5783 5786 5788 5791 5793 5795 5797 5800 5802 5805 5808 5811 5813 5815 5816 5818 5820 5822 5824 5826 5828 5830 5831 5832 5834 5835 5837 5838 5839 5841 5842
5619 5627 5634 5640 5647 5653 5655 5658 5665 5673 5680 5685 5688 5691 5697 5702 5707 5713 5720 5725 5730 5736 5741 5745 5750 5754 5758 5761 5765 5768 5770 5774 5777 5780 5783 5786 5788 5790 5793 5795 5797 5800 5803 5806 5809 5811 5812 5814 5815 5817 5819 5821 5823 5825 5827 5828 5830 5831 5832 5833 5835 5836 5837
5613 5621 5628 5634 5640 5645 5648 5653 5660 5666 5672 5678 5681 5685 5690 5695 5700 5707 5714 5719 5724 5730 5735 5740 5744 5748 5752 5756 5759 5762 5764 5767 5771 5774 5777 5780 5783 5785 5788 5790 5793 5795 5798 5801 5804 5806 5808 5809 5811 5812 5814 5816 5818 5820 5822 5824 5825 5826 5828 5829 5830 5831 5832
5608 5614 5623 5630 5635 5639 5644 5649 5654 5658 5664 5670 5675 5680 5684 5689 5695 5700 5706 5712 5718 5723 5728 5734 5738 5743 5747 5750 5753 5756 5758 5762 5765 5768 5771 5775 5778 5780 5783 5785 5788 5790 5793 5796 5798 5801 5803 5805 5806 5808 5809 5811 5813 5815 5816 5818 5820 5821 5823 5824 5826 5827 5828
5604 5611 5620 5626 5629 5633 5638 5642 5646 5651 5657 5664 5670 5674 5678 5683 5689 5694 5700 5705 5711 5716 5721 5727 5732 5737 5741 5744 5747 5750 5752 5755 5759 5762 5765 5769 5772 5775 5778 5780 5783 5785 5788 5790 5793 5795 5798 5800 5802 5803 5804 5806 5808 5809 5811 5813 5814 5816 5818 5819 5820 5821 5822
5601 5609 5616 5619 5621 5626 5631 5634 5638 5645 5651 5657 5663 5668 5673 5678 5684 5690 5695 5700 5705 5710 5715 5720 5725 5730 5735 5739 5741 5744 5747 5749 5753 5756 5759 5762 5765 5769 5772 5775 5778 5780 5782 5785 5787 5790 5792 5795 5797 5798 5800 5801 5802 5804 5806 5808 5809 5810 5812 5813 5814 5815 5816
5599 5606 5610 5610 5613 5618 5624 5628 5633 5640 5645 5650 5656 5662 5668 5674 5679 5685 5690 5694 5699 5704 5709 5712 5718 5724 5729 5733 5736 5739 5741 5744 5747 5750 5753 5756 5759 5762 5765 5769 5772 5774 5777 5779 5782 5784 5786 5789 5791 5793 5794 5796 5797 5798 5800 5801 5803 5804 5805 5806 5807 5808 5809
5595 5599 5600 5601 5604 5612 5618 5623 5628 5634 5640 5645 5651 5656 5662 5669 5674 5679 5684 5688 5693 5698 5702 5707 5712 5717 5721 5726 5730 5733 5736 5739 5741 5744 5747 5750 5753 5756 5759 5762 5765 5768 5771 5773 5775 5777 5780 5782 5784 5786 5788 5790 5791 5793 5794 5795 5796 5798 5798 5799 5801 5801 5802
5589 5591 5591 5593 5599 5607 5613 5616 5622 5629 5635 5640 5645 5650 5656 5663 5669 5673 5679 5685 5689 5692 5696 5702 5707 5711 5714 5718 5723 5727 5730 5733 5735 5738 5741 5744 5747 5749 5752 5755 5758 5761 5764 5766 5769 5771 5773 5775 5777 5780 5782 5784 5785 5787 5788 5789 5790 5791 5792 5793 5794 5795 5795